This is the latest recevied weather packets stored in our database for station/object K7TUS-6. If no packets are shown the sender has not sent any weather packets the latest 10 day(s).
| Time | Temp. | Humidity | Pressure | Rain* | Wind** | Luminosity | Snow |
|---|---|---|---|---|---|---|---|
| 1777386304 | 6.67° C | 1% | 982.4 hPa | - | - | - | - |
| 1777386003 | 6.67° C | 2% | 983.1 hPa | - | - | - | - |
| 1777385703 | 6.11° C | 1% | 982.2 hPa | - | - | - | - |
| 1777385408 | 6.11° C | 1% | 982.9 hPa | - | - | - | - |
| 1777385108 | 6.11° C | 1% | 981.7 hPa | - | - | - | - |
| 1777384806 | 6.11° C | 1% | 981.7 hPa | - | - | - | - |
| 1777384206 | 5.56° C | 1% | 981.9 hPa | - | - | - | - |
| 1777383905 | 5° C | 7% | 981.9 hPa | - | - | - | - |
| 1777383604 | 5° C | 7% | 981.5 hPa | - | - | - | - |
| 1777383303 | 5° C | 8% | 981.1 hPa | - | - | - | - |
| 1777383003 | 5° C | 8% | 981.6 hPa | - | - | - | - |
| 1777382708 | 5° C | 9% | 981.2 hPa | - | - | - | - |
| 1777382407 | 5° C | 10% | 981.6 hPa | - | - | - | - |
| 1777382107 | 5° C | 11% | 981.6 hPa | - | - | - | - |
| 1777381806 | 5° C | 13% | 981.4 hPa | - | - | - | - |
| 1777381506 | 4.44° C | 14% | 981.1 hPa | - | - | - | - |
| 1777381205 | 4.44° C | 15% | 980.6 hPa | - | - | - | - |
| 1777380905 | 4.44° C | 17% | 980.7 hPa | - | - | - | - |
| 1777380604 | 4.44° C | 19% | 981.1 hPa | - | - | - | - |
| 1777380303 | 4.44° C | 18% | 980.6 hPa | - | - | - | - |
| 1777380002 | 4.44° C | 19% | 980.6 hPa | - | - | - | - |
| 1777379708 | 4.44° C | 17% | 980.3 hPa | - | - | - | - |
| 1777379407 | 4.44° C | 17% | 979.7 hPa | - | - | - | - |
| 1777379107 | 4.44° C | 18% | 980.9 hPa | - | - | - | - |
| 1777378806 | 4.44° C | 17% | 979.5 hPa | - | - | - | - |
* Rain since midnight (hover to see other rain measurements)
** Current wind speed in m/s (hover to see current wind gust speed)